Regional Weather Roundup
Issued by NWS

Current Version | Previous Version | Text Only | Print | Product List | Glossary On
Versions: 1 2 3 4 5 6 7 8 9 10 11 12 13 14 15 16 17 18 19 20 21 22 23 24 25 26 27 28 29 30 31 32 33 34 35 36 37 38 39 40 41 42 43 44 45 46 47 48 49 50
000
ASUS44 KBMX 272110
RWRAL

ALABAMA REGIONAL WEATHER ROUNDUP
NATIONAL WEATHER SERVICE BIRMINGHAM AL
400 PM CDT WED MAY 27 2015

NOTE: "FAIR" INDICATES FEW OR NO CLOUDS BELOW 12,000 FEET
WITH NO SIGNIFICANT WEATHER AND/OR OBSTRUCTIONS TO VISIBILITY.

THE REMARK "TC" DENOTES TEMPERATURE IN DEGREES CELSIUS.

ALZ001>011-014-016>018-020-272200-
NORTH ALABAMA

CITY           SKY/WX    TMP DP  RH WIND       PRES   REMARKS
MUSCLE SHOALS  CLOUDY    80  67  64 VRB5      30.13F
HUNTSVILLE     PTSUNNY   86  68  54 E6        30.13F
DECATUR        PTSUNNY   83  69  62 CALM      30.14F
HALEYVILLE     FAIR      79  71  76 CALM      30.16F
GADSDEN        MOSUNNY  N/A N/A N/A NE7       30.12F
$$

ALZ012-013-022-023-030>036-040>044-272200-
WEST CENTRAL ALABAMA

CITY           SKY/WX    TMP DP  RH WIND       PRES   REMARKS
TUSCALOOSA     CLOUDY    83  69  62 E6        30.09F
$$

ALZ015-024>027-033>036-040>044-272200-
CENTRAL ALABAMA

CITY           SKY/WX    TMP DP  RH WIND       PRES   REMARKS
BIRMINGHAM     PTSUNNY   83  69  62 E7        30.13F
MONTGOMERY     CLOUDY    84  72  65 E10       30.11F
SHELBY CO ARPT HVY RAIN  77  72  84 SE3       30.12F
MAXWELL AFB    MOSUNNY   87  71  59 E12       30.09F HX  92
GREENVILLE     TSTM      72  68  87 SE7       30.14R
$$

ALZ019-021-028-029-037-038-045>048-272200-
EAST CENTRAL ALABAMA

CITY           SKY/WX    TMP DP  RH WIND       PRES   REMARKS
ANNISTON       MOSUNNY   84  64  50 SE8       30.14F
ALEXANDER CITY MOSUNNY   87  69  54 SE6       30.15F HX  91
AUBURN         MOSUNNY   81  66  61 SE6       30.18F
$$

ALZ051>064-272200-
SOUTHWEST ALABAMA

CITY           SKY/WX    TMP DP  RH WIND       PRES   REMARKS
MOBILE         CLOUDY    76  68  76 SW8       30.13F
BROOKLEY FIELD CLOUDY    82  74  76 S9        30.13F
EVERGREEN      CLOUDY    72  69  90 E5        30.15R
$$

ALZ049-050-065>069-272200-
SOUTHEAST ALABAMA

CITY           SKY/WX    TMP DP  RH WIND       PRES   REMARKS
DOTHAN         PTSUNNY   84  68  58 SE5       30.17F
OZARK          PTSUNNY   85  69  59 S5        30.14F
TROY           RAIN      76  71  85 E9        30.15S
EUFAULA        FAIR      88  70  55 CALM      30.13F HX  93
$$



USA.gov is the U.S. government's official web portal to all federal, state and local government web resources and services.